Nuiqsut, AK

12:08 PM AKDT on August 21, 2017 (GMT -0800)
Nuiqsut

Weather History for PAQT - February, 2014

Change the Weather History Date:

Wednesday, February 26, 2014

  Actual Average (PAKU) Record (PAKU)
Temperature  
Mean Temperature 0 °F -  
Max Temperature 10 °F -9 °F 26 °F (2015)
Min Temperature -9 °F -17 °F -51 °F (1986)
Degree Days  
Heating Degree Days 64    
Moisture  
Dew Point 0 °F    
Average Humidity 92    
Maximum Humidity 100    
Minimum Humidity 83    
Precipitation  
Precipitation 0.00 in - - ()
Sea Level Pressure  
Sea Level Pressure 30.34 in    
Wind  
Wind Speed 11 mph (NE)    
Max Wind Speed 22 mph    
Max Gust Speed -    
Visibility 4 miles    
Events Fog , Rain , Snow    
Averages and records for this station are not official NWS values.
T = Trace of Precipitation, MM = Missing Value Source: NWS Daily Summary

Daily Weather History Graph

Daily Weather History Graph

Search for Another Location

Airport or City:

Trip Planner

Search our weather history database for the weather conditions in past years. The results will help you decide how hot, cold, wet, or windy it might be!

Date:

Astronomy

Feb. 26, 2014 Rise Set
Actual Time 8:44 AM AKST 5:50 PM AKST
Civil Twilight 7:41 AM AKST 6:54 PM AKST
Nautical Twilight 6:30 AM AKST 8:05 PM AKST
Astronomical Twilight 5:16 AM AKST 9:20 PM AKST
Moon 8:00 AM AKST (2/26) 2:04 PM AKST (2/26)
Length of Visible Light 11h 13m
Length of Day
9h 05m
Waning Crescent, 9% of the Moon is Illuminated
Feb 26
Waning Crescent
Feb 28
New
Mar 8
First Quarter
Mar 16
Full
Mar 23
Last Quarter

Hourly Weather History & Observations

Time (AKST) Temp. Windchill Dew Point Humidity Pressure Visibility Wind Dir Wind Speed Gust Speed Precip Events Conditions
12:50 AM -2.2 °F -20.7 °F -5.8 °F 85% 30.27 in 10.0 mi SSW 12.7 mph - N/A   Scattered Clouds
12:53 AM -2.9 °F -20.8 °F -5.1 °F 90% 30.28 in 10.0 mi SSW 11.5 mph - N/A   Mostly Cloudy
1:06 AM -0.9 °F -17.4 °F -2.9 °F 91% 30.27 in 2.5 mi SSW 10.4 mph - N/A   Mostly Cloudy
1:11 AM -0.9 °F -17.4 °F -2.0 °F 95% 30.28 in 0.8 mi SSW 10.4 mph - N/A   Overcast
1:22 AM -0.0 °F -18.0 °F -0.9 °F 96% 30.28 in 0.2 mi SSW 12.7 mph - 0.00 in Fog , Rain Light Freezing Rain
1:53 AM -0.0 °F -16.3 °F -0.9 °F 96% 30.29 in 0.5 mi SSW 10.4 mph - 0.00 in Fog , Rain Light Freezing Rain
2:19 AM 3.0 °F -11.5 °F 1.9 °F 95% 30.30 in 2.5 mi SSW 9.2 mph - 0.00 in Rain Light Freezing Rain
2:26 AM 3.0 °F -13.3 °F 3.0 °F 100% 30.30 in 8.0 mi SSW 11.5 mph - 0.00 in Rain Light Freezing Rain
2:53 AM 5.0 °F -12.3 °F 5.0 °F 100% 30.31 in 8.0 mi SW 13.8 mph - 0.00 in Rain Light Freezing Rain
3:00 AM 6.1 °F -10.9 °F 5.0 °F 95% 30.30 in 10.0 mi SW 13.8 mph - 0.00 in   Overcast
3:18 AM 6.1 °F -10.2 °F 6.1 °F 100% 30.31 in 10.0 mi SW 12.7 mph - 0.00 in   Overcast
3:48 AM 8.6 °F -6.3 °F 6.8 °F 92% 30.31 in 10.0 mi SW 11.5 mph - 0.00 in Rain Light Freezing Rain
3:53 AM 8.1 °F -7.7 °F 7.0 °F 95% 30.32 in 10.0 mi SW 12.7 mph - 0.00 in Rain Light Freezing Rain
4:26 AM 9.0 °F -5.9 °F 8.1 °F 96% 30.31 in 10.0 mi SW 11.5 mph - 0.00 in   Overcast
4:45 AM 10.0 °F -4.5 °F 9.0 °F 95% 30.31 in 10.0 mi SW 11.5 mph - 0.00 in Rain Light Freezing Rain
4:53 AM 10.0 °F -5.2 °F 9.0 °F 95% 30.31 in 10.0 mi SW 12.7 mph - 0.00 in Rain Light Freezing Rain
5:11 AM 10.0 °F -4.5 °F 9.0 °F 95% 30.31 in 10.0 mi SW 11.5 mph - 0.00 in   Overcast
5:36 AM 10.9 °F -1.8 °F 10.0 °F 96% 30.31 in 6.0 mi WSW 9.2 mph - 0.00 in Rain Light Freezing Rain
5:53 AM 10.9 °F -0.8 °F 10.0 °F 96% 30.31 in 10.0 mi WSW 8.1 mph - 0.00 in Rain Light Freezing Rain
6:06 AM 10.0 °F -1.9 °F 10.0 °F 100% 30.31 in 10.0 mi WSW 8.1 mph - 0.00 in   Overcast
6:43 AM 9.0 °F -2.2 °F 8.1 °F 96% 30.32 in 7.0 mi West 6.9 mph - 0.00 in Rain Light Freezing Rain
6:50 AM 8.6 °F -1.3 °F 8.6 °F 100% 30.32 in 1.8 mi West 5.8 mph - 0.00 in Rain Light Freezing Rain
6:53 AM 9.0 °F -0.9 °F 8.1 °F 96% 30.32 in 1.0 mi West 5.8 mph - 0.00 in Rain Light Freezing Rain
7:00 AM 9.0 °F -0.9 °F 9.0 °F 100% 30.32 in 0.5 mi West 5.8 mph - 0.00 in Fog Light Freezing Fog
7:14 AM 9.0 °F 2.4 °F 9.0 °F 100% 30.32 in 0.2 mi West 3.5 mph - 0.00 in Fog , Rain Light Freezing Rain
7:24 AM 9.0 °F 2.4 °F 9.0 °F 100% 30.32 in 0.2 mi West 3.5 mph - 0.00 in Fog Light Freezing Fog
7:53 AM 9.0 °F 2.4 °F 8.1 °F 96% 30.33 in 0.2 mi South 3.5 mph - 0.00 in Fog Light Freezing Fog
8:53 AM 9.0 °F 2.4 °F 9.0 °F 100% 30.35 in 0.2 mi NW 3.5 mph - N/A Fog Light Freezing Fog
9:26 AM 9.0 °F 2.4 °F 8.1 °F 96% 30.34 in 0.2 mi NW 3.5 mph - N/A Fog Light Freezing Fog
9:53 AM 9.0 °F - 8.1 °F 96% 30.36 in 0.5 mi Calm Calm - N/A Fog Light Freezing Fog
10:33 AM 8.1 °F -3.2 °F 7.0 °F 95% 30.35 in 0.8 mi NNE 6.9 mph - N/A   Mist
10:41 AM 8.1 °F -2.0 °F 7.0 °F 95% 30.36 in 0.8 mi NNE 5.8 mph - N/A   Mist
10:51 AM 8.6 °F -3.7 °F 6.8 °F 92% 30.36 in 0.8 mi NNE 8.1 mph - 0.00 in Snow Light Snow
10:53 AM 8.1 °F -4.3 °F 7.0 °F 95% 30.36 in 0.8 mi NNE 8.1 mph - 0.00 in Snow Light Snow
11:21 AM 6.1 °F -7.8 °F 5.0 °F 95% 30.36 in 0.8 mi NE 9.2 mph - 0.00 in   Overcast
11:31 AM 6.1 °F -7.8 °F 3.9 °F 91% 30.37 in 1.0 mi NE 9.2 mph - 0.00 in Snow Light Snow
11:38 AM 5.0 °F -10.8 °F 3.9 °F 95% 30.37 in 1.0 mi NE 11.5 mph - 0.00 in Snow Light Snow
11:48 AM 5.0 °F -9.1 °F 3.2 °F 92% 30.37 in 0.8 mi NE 9.2 mph - 0.00 in Snow Light Snow
11:53 AM 5.0 °F -11.6 °F 3.9 °F 95% 30.38 in 0.8 mi NE 12.7 mph - 0.00 in Snow Light Snow
12:15 PM 3.0 °F -14.1 °F 1.9 °F 95% 30.38 in 1.5 mi NE 12.7 mph - 0.00 in Snow Light Snow
12:33 PM 3.0 °F -14.1 °F 1.0 °F 91% 30.38 in 1.8 mi NE 12.7 mph - 0.00 in Snow Blowing Snow
12:41 PM 1.9 °F -16.2 °F 1.0 °F 96% 30.38 in 0.8 mi NE 13.8 mph - 0.00 in Snow Blowing Snow
12:53 PM 1.9 °F -14.7 °F 1.0 °F 96% 30.39 in 0.5 mi NE 11.5 mph - 0.00 in Fog Light Freezing Fog
1:33 PM 1.9 °F -14.7 °F -0.0 °F 91% 30.39 in 1.8 mi NE 11.5 mph - N/A   Overcast
1:40 PM 1.0 °F -15.8 °F -0.0 °F 95% 30.39 in 2.5 mi ENE 11.5 mph - N/A   Overcast
1:53 PM 1.0 °F -14.9 °F -2.0 °F 87% 30.40 in 5.0 mi NE 10.4 mph - N/A Snow Blowing Snow
2:53 PM -2.0 °F -20.5 °F -5.1 °F 87% 30.39 in 5.0 mi NE 12.7 mph - N/A   Mostly Cloudy
3:07 PM -2.0 °F -18.7 °F -6.0 °F 83% 30.39 in 5.0 mi NE 10.4 mph - N/A   Scattered Clouds
3:53 PM -4.0 °F -22.1 °F -7.1 °F 87% 30.38 in 5.0 mi ENE 11.5 mph - N/A   Clear
4:53 PM -7.1 °F -25.0 °F -9.9 °F 87% 30.39 in 4.0 mi ENE 10.4 mph - N/A   Clear
5:53 PM -9.0 °F -30.2 °F -11.9 °F 87% 30.38 in 4.0 mi NE 13.8 mph - N/A   Clear
6:19 PM -9.0 °F -30.9 °F -11.9 °F 87% 30.37 in 3.0 mi ENE 15.0 mph - N/A   Partly Cloudy
6:53 PM -9.9 °F -32.1 °F -13.0 °F 86% 30.36 in 6.0 mi ENE 15.0 mph - N/A   Clear
7:26 PM -9.9 °F -34.2 °F -13.0 °F 86% 30.35 in 2.5 mi ENE 18.4 mph - N/A   Mostly Cloudy
7:43 PM -9.0 °F -33.6 °F -13.0 °F 83% 30.35 in 2.0 mi ENE 19.6 mph - N/A   Overcast
7:53 PM -9.0 °F -33.6 °F -13.0 °F 83% 30.35 in 2.0 mi ENE 19.6 mph - N/A   Overcast
7:59 PM -9.0 °F -34.8 °F -11.9 °F 87% 30.34 in 1.5 mi ENE 21.9 mph - N/A   Overcast
8:53 PM -7.1 °F -29.8 °F -9.9 °F 87% 30.35 in 1.5 mi ENE 17.3 mph - N/A   Overcast
9:53 PM -6.0 °F -29.0 °F -9.0 °F 87% 30.33 in 1.5 mi ENE 18.4 mph - N/A   Overcast
9:58 PM -6.0 °F -29.6 °F -9.0 °F 87% 30.33 in 2.0 mi ENE 19.6 mph - N/A   Overcast
10:16 PM -5.1 °F -29.0 °F -8.0 °F 87% 30.33 in 2.0 mi ENE 20.7 mph - N/A   Overcast
10:27 PM -5.1 °F -28.4 °F -8.0 °F 87% 30.33 in 1.8 mi ENE 19.6 mph - N/A   Overcast
10:53 PM -5.1 °F -28.4 °F -8.0 °F 87% 30.32 in 1.2 mi ENE 19.6 mph - N/A   Overcast
11:34 PM -6.0 °F -30.7 °F -9.0 °F 87% 30.29 in 1.0 mi ENE 21.9 mph - N/A   Overcast
11:39 PM -6.0 °F -30.7 °F -9.0 °F 87% 30.30 in 1.0 mi ENE 21.9 mph - N/A   Overcast
11:53 PM -6.0 °F -30.7 °F -9.0 °F 87% 30.30 in 1.2 mi ENE 21.9 mph - N/A   Overcast